Jaakko Taylor

Chefscout - KuPS
8 Dez 2028
Freitag
Verarbeitung

Persönlichkeit

Anpassungsfähigkeit (7) Ehrgeiz (1) Kontroverse (16) Loyalität (9) Druck (12) Professionalität (19) Fairness (15) Temperament (13)

Profil

Trainerstil Demokratisch
Lizenz Kontinentale Pro
Entschlossenheit 10
Menschenführung 9
Motivation 10
Disziplin 7
Arbeitszufriedenheit
87%
Ermüdung
0%
Rolle Chefscout
Gehalt 32.6K p/W
Vertrag 14.03.2029

Leistung

Verhalten Gut
Trainingseffektivität
35%
Spielerentwicklung
30%
Verletzungsprävention
40%
Taktische Umsetzung
45%

Letzte Ereignisse

Nahm an einer Scouting-Besprechung teil jetzt
Nahm an einer Scouting-Besprechung teil jetzt
Empfahl ein Transferziel jetzt
Empfahl ein Transferziel jetzt
Empfahl ein Transferziel jetzt
Spieler begutachtet 7T her
Spieler begutachtet 7T her
Spieler begutachtet 7T her

Aktuell beobachtet

83
Spieler Verein Status Fähigkeit Vertrauen Beobachtet Zuletzt beobachtet Letzte Stimme
Patricio Moyano Defensores Aktiv 113 / 132 40% 4 07.12.2028 -
Matías Sosa Arsenal Aktiv 125 / 108 40% 1 07.12.2028 -
Diego Robles Union Espanola Aktiv 108 / 78 40% 1 06.12.2028 -
Julián Bragado Morón Aktiv 85 / 99 40% 1 06.12.2028 -
Tobías Leiva Estudiantes Aktiv 98 / 119 40% 3 03.12.2028 -
Alexander Díaz Deportivo Riestra Aktiv 104 / 111 40% 1 01.12.2028 -
Agustín Colazo Unión de Santa Fe Aktiv 134 / 123 40% 1 01.12.2028 -
Agustín Morales Estudiantes Aktiv 106 / 102 40% 2 30.11.2028 -
Luca Langoni Columbus Crew Aktiv 139 / 146 40% 2 29.11.2028 -
Antonio Napolitano Agropecuario Argentino Aktiv 115 / 99 40% 1 29.11.2028 -
Pablo Cardona Cortulua Aktiv 105 / 122 40% 1 28.11.2028 -
John Córdoba Millonarios Aktiv 141 / 106 40% 1 28.11.2028 -
Matías Bergara Nueva Chicago Aktiv 106 / 104 40% 1 25.11.2028 -
Federico Versaci Talleres Aktiv 137 / 118 40% 2 22.11.2028 -
Juan Sebastián Herrera Deportivo La Guaira Aktiv 98 / 101 40% 1 22.11.2028 -
Tomás Pozzo Godoy Cruz Aktiv 120 / 126 40% 1 21.11.2028 -
Juan Velázquez Belgrano Aktiv 111 / 114 40% 1 19.11.2028 -
Antonio Galeano Remo Stars Aktiv 133 / 128 40% 1 19.11.2028 -
Alex Luna Instituto Aktiv 142 / 135 40% 3 17.11.2028 -
Alcides Benítez Belgrano Aktiv 135 / 114 40% 1 17.11.2028 -
Facundo Lencioni Gimnasia y Esgrima Aktiv 106 / 109 40% 1 15.11.2028 -
Gerónimo Tomasetti Temperley Aktiv 123 / 100 40% 1 15.11.2028 -
Santiago Sala Güemes Aktiv 97 / 125 40% 3 14.11.2028 -
Yackson Rivas Deportivo La Guaira Aktiv 112 / 106 40% 1 13.11.2028 -
Yuber Quiñónes Patriotas Aktiv 117 / 127 40% 1 13.11.2028 -
Gastón Moreyra Almirante Brown Aktiv 129 / 109 40% 2 12.11.2028 -
Yeferson Rodallega Envigado Aktiv 109 / 120 40% 2 12.11.2028 -
Ruben Ramos LA Galaxy Aktiv 107 / 96 40% 1 11.11.2028 -
Joaquín Varela Albion Aktiv 86 / 85 40% 1 11.11.2028 -
Augusto Berrondo Tristán Suárez Aktiv 112 / 95 40% 1 10.11.2028 -
Diego Gaitán Maipú Aktiv 92 / 121 40% 2 08.11.2028 -
Francisco Gerometta Godoy Cruz Aktiv 139 / 114 40% 1 07.11.2028 -
Marcio Gómez Racing Aktiv 113 / 107 40% 1 07.11.2028 -
Fernando Herrera Pafos Verhandlung 96 / 96 66% 1 16.07.2028 Befürworten
Louie Barry Gillingham Aktiv 128 / 129 68% 1 16.07.2028 Befürworten
Daniel Kyerewaa Reading Aktiv 125 / 135 40% 1 14.07.2028 -
Calvin Ramsay Bristol Rovers Aktiv 114 / 122 40% 1 14.07.2028 -
Malik Mothersille Stockport County Aktiv 120 / 116 40% 1 12.07.2028 -
Ethan Williams Peterborough United Aktiv 127 / 111 40% 1 12.07.2028 -
Johnly Yfeko Exeter City Aktiv 130 / 109 40% 1 11.07.2028 -
Oscar Schwartau Norwich City Aktiv 147 / 144 40% 1 11.07.2028 -
Ar'jany Martha Rotherham United Aktiv 109 / 104 40% 2 09.07.2028 -
Tristan Crama Wycombe Wanderers Aktiv 109 / 137 40% 1 06.07.2028 -
Tim Iroegbunam Peterborough United Aktiv 121 / 153 40% 1 05.07.2028 -
Olaf Kobacki Sheffield Wednesday Aktiv 115 / 117 40% 1 05.07.2028 -
Idris El Mizouni Leyton Orient Aktiv 135 / 121 40% 1 04.07.2028 -
Kyreece Lisbie Colchester United Aktiv 108 / 107 40% 1 03.07.2028 -
Alejandro Rincon Llaneros Aktiv 102 / 102 66% 1 01.02.2028 Befürworten
Dato Mchedlidze Tskhinvali Verhandlung 101 / 104 90% 1 01.02.2028 -
Emanuele Schimmenti Potenza Verloren 114 / 115 66% 1 01.02.2028 -
Martti Haukioja VPS Aktiv 94 / 107 41% 1 01.02.2028 -
Joaquín Valiente FC Dallas Aktiv 95 / 104 40% 2 31.01.2028 -
Manuel Duarte Barracas Central Aktiv 118 / 106 40% 1 03.01.2028 -
Mario Sanabria Chacarita Juniors Aktiv 99 / 105 40% 1 02.01.2028 -
Santiago Martínez Godoy Cruz Aktiv 122 / 127 40% 1 29.12.2027 -
Pedro Souto Temperley Aktiv 99 / 101 40% 3 28.12.2027 -
Matías Rosales Sarmiento Aktiv 126 / 118 40% 2 27.12.2027 -
Franco Ayunta Temperley Aktiv 94 / 117 40% 1 24.12.2027 -
Manuel Mónaco Sarmiento Aktiv 125 / 117 40% 2 23.12.2027 -
Yegor Kortsov Dinamo Brest Aktiv 89 / 112 40% 1 21.12.2027 -
Ramón González Almirante Brown Aktiv 102 / 128 40% 1 20.12.2027 -
Matías Machado Racing Aktiv 98 / 106 40% 1 20.12.2027 -
Tobías Macies Almagro Aktiv 83 / 106 40% 1 19.12.2027 -
Matías Fernández Independiente Rivadavia Aktiv 101 / 124 40% 1 13.12.2027 -
Gino Olguín Ferro Carril Oeste Aktiv 89 / 119 40% 1 13.12.2027 -
Facundo Taborda Racing Aktiv 117 / 122 40% 2 10.12.2027 -
Franco Vedoya Central Norte Aktiv 107 / 118 40% 1 10.12.2027 -
José Barreto Quilmes Aktiv 133 / 105 40% 1 07.12.2027 -
Matías Arias Vélez Aktiv 124 / 121 40% 1 06.12.2027 -
Juan David Rueda Alianza Petrolera Aktiv 109 / 123 40% 2 04.12.2027 -
Iñaki Larthirigoyen San Telmo Aktiv 124 / 117 40% 3 27.11.2027 -
Nicolás Mosca Atlanta Aktiv 130 / 109 40% 1 24.11.2027 -
Federico Bisanz Atlanta Aktiv 118 / 123 40% 1 17.11.2027 -
Ismael Cortez Gimnasia y Esgrima Aktiv 94 / 101 40% 1 15.11.2027 -
Santiago Kubiszyn Morón Aktiv 133 / 128 40% 1 13.11.2027 -
Enzo González Defensores Aktiv 86 / 118 40% 2 11.11.2027 -
Gustavo Viera Cerro Largo Aktiv 109 / 111 40% 1 11.11.2027 -
Martín Campos Ferro Carril Oeste Aktiv 141 / 113 40% 1 07.11.2027 -
Alejo Dramisino Atlanta Aktiv 140 / 111 40% 1 05.11.2027 -
Jefry Zapata Aldosivi Aktiv 110 / 118 40% 1 04.11.2027 -
Danila Bulgakov SJK Aktiv 100 / 99 41% 1 29.03.2027 -
Seth Saarinen Inter Turku Aktiv 92 / 86 41% 1 15.02.2027 -
Yiandro Raap Ilves Aktiv 82 / 95 41% 1 10.08.2026 Mehr Infos nötig